Regional Weather Roundup
Issued by NWS

Home | Current Version | Previous Version | Graphics & Text | Print | Product List | Glossary On
Versions: 1 2 3 4 5 6 7 8 9 10 11 12 13 14 15 16 17 18 19 20 21 22 23 24 25 26 27
000
ASUS45 KCYS 160510
RWRWY

WYOMING REGIONAL WEATHER ROUNDUP
NATIONAL WEATHER SERVICE CHEYENNE WY
1100 PM MDT TUE APR 15 2014

NOTE:  "FAIR" INDICATES FEW OR NO CLOUDS BELOW 12,000 FEET
WITH NO SIGNIFICANT WEATHER AND/OR OBSTRUCTIONS TO VISIBILITY.

WYZ001-160600-
YELLOWSTONE NATIONAL PARK

CITY           SKY/WX    TMP DP  RH WIND       PRES   REMARKS
LK YELLOWSTONE   N/A     24  19  81 VRB6      29.86S WCI  17
W YELLOWSTONE  NOT AVBL

$$
WYZ002>013-054>058-071-098>099-160600-
NORTHERN WYOMING

CITY           SKY/WX    TMP DP  RH WIND       PRES   REMARKS
JACKSON        MOCLDY    34  23  64 W10       29.86R WCI  26
CODY           MOCLDY    37  30  75 E8        29.78R WCI  31
GREYBULL       CLOUDY    41  31  67 N21G29    29.76R
WORLAND        CLOUDY    40  32  73 N18G26    29.77R WCI  31
SHERIDAN       CLOUDY    40  34  79 NW26      29.73S WCI  29
BUFFALO        LGT RAIN  36  32  85 N23G38    29.71R WCI  24
GILLETTE       LGT RAIN  36  34  93 NW16      29.68S WCI  26
HULETT         RAIN      37  36  93 N8        29.66  WCI  31
NEWCASTLE      FAIR      41  34  75 N5        29.61

$$
WYZ014>020-022>026-101>103-160600-
CENTRAL WYOMING

CITY           SKY/WX    TMP DP  RH WIND       PRES   REMARKS
BIG PINEY      CLOUDY    32  26  78 N18       29.87S WCI  20
PINEDALE       CLOUDY    32  30  93 W12       29.85S WCI  23
DUBOIS         MOCLDY    30  19  64 W15G21    29.79R WCI  19
LANDER         PTCLDY    37  30  75 NE15G24   29.79R WCI  28
RIVERTON       CLOUDY    36  30  79 NE9       29.79R WCI  29
CASPER         LGT SNOW  33  31  92 N23G38    29.74R FOG     WCI  21
DOUGLAS        CLOUDY    46  31  55 NW16G24   29.65R

$$
WYZ021-027>030-104>119-160600-
SOUTHERN WYOMING

CITY           SKY/WX    TMP DP  RH WIND       PRES   REMARKS
EVANSTON       CLOUDY    39   8  27 NW18G29   29.94R WCI  30
KEMMERER       CLOUDY    36  14  41 W28G33    29.88F WCI  23
FORT BRIDGER   FAIR      40  13  32 W24G31    29.91S WCI  30
ROCK SPRINGS   MOCLDY    40  23  50 W20       29.84S WCI  30
DIXON          CLOUDY    44  27  50 W17G24    29.83S
RAWLINS        MOCLDY    41  22  46 W26G37    29.76R
SARATOGA       CLOUDY    41  27  56 W23G38    29.78S
LARAMIE        LGT SNOW  37  29  72 W17G31    29.75R WCI  27
CHEYENNE       CLOUDY    43  24  47 SW12      29.70S
TORRINGTON     CLOUDY    54  30  40 W31G52    29.62R
PINE BLUFFS    MOCLDY    45  25  45 W7        29.68S

$$



USA.gov is the U.S. government's official web portal to all federal, state and local government web resources and services.